カタログに戻る

STARLINK-1443

運用中通信VLEO
NORAD 45660·PAYLOAD·🇺🇸 United States

打ち上げ Jun 4, 2020 から Cape Canaveral Space Force Station

Loading…

次のパス (今後24時間)

TLE

最新Source: CelesTrak SupGP

元期: Sep 14, 2026, 21:10 UTC

1 45660C 20035D   26257.88243056  .00074907  00000+0  18398-2 0  2573
2 45660  53.1296 262.0764 0004045  34.5694  38.1642 15.40049359    15

AllMySatでSTARLINK-1443をリアルタイム追跡

Download on the App Store